Madison, MN

2:21 AM CST on December 06, 2016 (GMT -0600)
Madison-Lac Qui Parle County

Weather History for KDXX - May, 2013

Change the Weather History Date:

Friday, May 10, 2013

  Actual Average (KAQP) Record (KAQP)
Temperature  
Mean Temperature 52 °F -  
Max Temperature 69 °F 64 °F 84 °F (2011)
Min Temperature 35 °F 41 °F 28 °F (2002)
Degree Days  
Heating Degree Days 13    
Growing Degree Days 2 (Base 50)    
Moisture  
Dew Point 31 °F    
Average Humidity 48    
Maximum Humidity 87    
Minimum Humidity 21    
Precipitation  
Precipitation 0.00 in - - ()
Sea Level Pressure  
Sea Level Pressure 30.07 in    
Wind  
Wind Speed 5 mph (NNW)    
Max Wind Speed 29 mph    
Max Gust Speed 39 mph    
Visibility 10 miles    
Events Rain    
Averages and records for this station are not official NWS values.
T = Trace of Precipitation, MM = Missing Value Source: NWS Daily Summary

Daily Weather History Graph

Daily Weather History Graph

Search for Another Location

Airport or City:

Trip Planner

Search our weather history database for the weather conditions in past years. The results will help you decide how hot, cold, wet, or windy it might be!

Date:

Astronomy

May. 10, 2013 Rise Set
Actual Time 6:01 AM CDT 8:41 PM CDT
Civil Twilight 5:27 AM CDT 9:15 PM CDT
Nautical Twilight 4:45 AM CDT 9:57 PM CDT
Astronomical Twilight 3:56 AM CDT 10:46 PM CDT
Moon 6:26 AM CDT (5/10) 9:33 PM CDT (5/10)
Length of Visible Light 15h 47m
Length of Day
14h 40m
New Moon, 0% of the Moon is Illuminated
May 10
New Moon
May 17
First Quarter
May 24
Full
May 31
Last Quarter
Jun 8
New

Hourly Weather History & Observations

Time (CDT) Temp. Windchill Dew Point Humidity Pressure Visibility Wind Dir Wind Speed Gust Speed Precip Events Conditions
12:54 AM 48.2 °F - 37.4 °F 66% 30.15 in 10.0 mi Calm Calm - N/A   Overcast
1:13 AM 48.2 °F - 37.4 °F 66% 30.15 in 10.0 mi NE 3.5 mph - N/A   Overcast
1:34 AM 46.4 °F - 37.4 °F 71% 30.16 in 10.0 mi Calm Calm - N/A   Overcast
1:54 AM 46.4 °F - 37.4 °F 71% 30.16 in 10.0 mi Calm Calm - N/A   Overcast
2:13 AM 46.4 °F - 37.4 °F 71% 30.16 in 10.0 mi Calm Calm - N/A   Overcast
2:34 AM 46.4 °F 45.2 °F 37.4 °F 71% 30.15 in 10.0 mi NNE 3.5 mph - N/A   Overcast
2:54 AM 46.4 °F 43.5 °F 37.4 °F 71% 30.15 in 10.0 mi NE 5.8 mph - N/A   Overcast
3:13 AM 46.4 °F 43.5 °F 35.6 °F 66% 30.15 in 10.0 mi NE 5.8 mph - N/A   Overcast
3:54 AM 42.8 °F 39.3 °F 35.6 °F 76% 30.14 in 10.0 mi ENE 5.8 mph - N/A   Clear
4:13 AM 41.0 °F 39.0 °F 33.8 °F 76% 30.14 in 10.0 mi ENE 3.5 mph - N/A   Clear
4:34 AM 39.2 °F 34.2 °F 33.8 °F 81% 30.14 in 10.0 mi NE 6.9 mph - N/A   Clear
4:54 AM 39.2 °F - 33.8 °F 81% 30.15 in 10.0 mi Calm Calm - N/A   Clear
5:13 AM 37.4 °F 33.8 °F 33.8 °F 87% 30.15 in 10.0 mi North 4.6 mph - N/A   Clear
5:34 AM 35.6 °F 29.9 °F 32.0 °F 87% 30.15 in 10.0 mi NNE 6.9 mph - N/A   Clear
5:54 AM 35.6 °F 29.9 °F 30.2 °F 81% 30.15 in 10.0 mi NNE 6.9 mph - N/A   Clear
6:13 AM 35.6 °F 29.2 °F 30.2 °F 81% 30.15 in 10.0 mi NNE 8.1 mph - N/A   Clear
6:34 AM 35.6 °F 29.2 °F 30.2 °F 81% 30.15 in 10.0 mi NNE 8.1 mph - N/A   Clear
7:14 AM 39.2 °F 35.0 °F 32.0 °F 75% 30.16 in 10.0 mi NNE 5.8 mph - N/A   Clear
7:34 AM 41.0 °F 37.1 °F 30.2 °F 65% 30.15 in 10.0 mi NE 5.8 mph - N/A   Clear
8:14 AM 42.8 °F 38.6 °F 28.4 °F 57% 30.15 in 10.0 mi East 6.9 mph - N/A   Clear
8:34 AM 42.8 °F 37.5 °F 28.4 °F 57% 30.15 in 10.0 mi East 9.2 mph - N/A   Clear
8:53 AM 44.6 °F 41.4 °F 26.6 °F 49% 30.15 in 10.0 mi East 5.8 mph - N/A   Clear
9:14 AM 44.6 °F 43.1 °F 28.4 °F 53% 30.15 in 10.0 mi NE 3.5 mph - N/A   Clear
9:34 AM 44.6 °F - 28.4 °F 53% 30.15 in 10.0 mi Calm Calm - N/A   Clear
9:53 AM 46.4 °F - 28.4 °F 50% 30.14 in 10.0 mi Calm Calm - N/A   Clear
10:14 AM 46.4 °F - 28.4 °F 50% 30.14 in 10.0 mi Calm Calm - N/A   Clear
10:34 AM 48.2 °F - 28.4 °F 46% 30.13 in 10.0 mi Calm Calm - N/A   Clear
10:53 AM 48.2 °F - 26.6 °F 43% 30.13 in 10.0 mi Calm Calm - N/A   Clear
11:14 AM 51.8 °F - 26.6 °F 38% 30.13 in 10.0 mi Calm Calm - N/A   Clear
11:33 AM 51.8 °F - 26.6 °F 38% 30.12 in 10.0 mi Calm Calm - N/A   Clear
12:14 PM 55.4 °F - 24.8 °F 31% 30.11 in 10.0 mi Calm Calm - N/A   Clear
12:33 PM 57.2 °F - 19.4 °F 23% 30.10 in 10.0 mi Calm Calm - N/A   Clear
12:54 PM 57.2 °F - 21.2 °F 25% 30.09 in 10.0 mi Calm Calm - N/A   Clear
1:14 PM 59.0 °F - 23.0 °F 25% 30.08 in 10.0 mi Calm Calm - N/A   Clear
1:33 PM 59.0 °F - 24.8 °F 27% 30.07 in 10.0 mi Calm Calm - N/A   Clear
1:54 PM 60.8 °F - 26.6 °F 27% 30.07 in 10.0 mi Calm Calm - N/A   Clear
2:14 PM 62.6 °F - 26.6 °F 26% 30.06 in 10.0 mi SSW 6.9 mph - N/A   Clear
2:33 PM 62.6 °F - 26.6 °F 26% 30.05 in 10.0 mi Calm Calm - N/A   Clear
2:54 PM 62.6 °F - 26.6 °F 26% 30.04 in 10.0 mi West 6.9 mph - N/A   Clear
3:14 PM 64.4 °F - 26.6 °F 24% 30.02 in 10.0 mi SW 8.1 mph - N/A   Clear
3:33 PM 64.4 °F - 26.6 °F 24% 30.02 in 10.0 mi WSW 5.8 mph - N/A   Clear
3:54 PM 64.4 °F - 28.4 °F 26% 30.00 in 10.0 mi SW 3.5 mph - N/A   Clear
4:13 PM 66.2 °F - 30.2 °F 26% 29.99 in 10.0 mi WSW 3.5 mph - N/A   Clear
4:34 PM 66.2 °F - 30.2 °F 26% 29.97 in 10.0 mi SW 11.5 mph - N/A   Clear
4:54 PM 68.0 °F - 30.2 °F 24% 29.97 in 10.0 mi West 9.2 mph 19.6 mph N/A   Clear
5:13 PM 68.0 °F - 28.4 °F 23% 29.96 in 10.0 mi West 9.2 mph - N/A   Clear
5:34 PM 69.8 °F - 30.2 °F 23% 29.95 in 10.0 mi WSW 8.1 mph - N/A   Clear
5:54 PM 69.8 °F - 28.4 °F 21% 29.95 in 10.0 mi West 12.7 mph 17.3 mph N/A   Clear
6:13 PM 69.8 °F - 30.2 °F 23% 29.93 in 10.0 mi WSW 10.4 mph - N/A   Clear
6:34 PM 69.8 °F - 30.2 °F 23% 29.92 in 10.0 mi West 10.4 mph - N/A   Clear
6:54 PM 68.0 °F - 33.8 °F 28% 29.91 in 10.0 mi WSW 9.2 mph - N/A   Clear
7:13 PM 68.0 °F - 33.8 °F 28% 29.91 in 10.0 mi West 9.2 mph - N/A   Scattered Clouds
7:34 PM 66.2 °F - 35.6 °F 32% 29.91 in 10.0 mi West 10.4 mph - N/A Rain Light Rain
7:54 PM 66.2 °F - 37.4 °F 35% 29.90 in 10.0 mi WSW 4.6 mph - N/A   Mostly Cloudy
8:13 PM 64.4 °F - 41.0 °F 42% 29.91 in 10.0 mi NW 9.2 mph - N/A   Mostly Cloudy
8:34 PM 62.6 °F - 44.6 °F 52% 29.91 in 10.0 mi WNW 13.8 mph 20.7 mph N/A   Scattered Clouds
8:54 PM 60.8 °F - 42.8 °F 52% 29.94 in 10.0 mi North 27.6 mph 33.4 mph N/A   Scattered Clouds
9:13 PM 57.2 °F - 39.2 °F 51% 29.97 in 10.0 mi North 26.5 mph 38.0 mph N/A   Scattered Clouds
9:34 PM 55.4 °F - 39.2 °F 54% 29.99 in 10.0 mi North 26.5 mph 34.5 mph N/A   Scattered Clouds
9:54 PM 53.6 °F - 35.6 °F 51% 30.01 in 10.0 mi North 27.6 mph 39.1 mph N/A   Clear
10:13 PM 53.6 °F - 35.6 °F 51% 30.03 in 10.0 mi North 28.8 mph 34.5 mph N/A   Clear
10:33 PM 51.8 °F - 33.8 °F 50% 30.04 in 10.0 mi North 25.3 mph 34.5 mph N/A   Clear
10:54 PM 50.0 °F - 32.0 °F 50% 30.05 in 10.0 mi North 24.2 mph 32.2 mph N/A   Clear
11:13 PM 48.2 °F - 28.4 °F 46% 30.06 in 10.0 mi North 20.7 mph 31.1 mph N/A   Clear
11:33 PM 48.2 °F - 26.6 °F 43% 30.07 in 10.0 mi North 20.7 mph 24.2 mph N/A   Clear
11:54 PM 46.4 °F 39.2 °F 28.4 °F 50% 30.08 in 10.0 mi NNW 18.4 mph 25.3 mph N/A   Clear